Change the Weather History Date:

Monday, November 26, 2012

  Actual Average (KRWF) Record (KRWF)
Temperature  
Mean Temperature 17 °F -  
Max Temperature 24 °F 34 °F 64 °F (1941)
Min Temperature 10 °F 18 °F -15 °F (1996)
Degree Days  
Heating Degree Days 48    
Moisture  
Dew Point 8 °F    
Average Humidity 67    
Maximum Humidity 79    
Minimum Humidity 54    
Precipitation  
Precipitation 0.00 in - - ()
Sea Level Pressure  
Sea Level Pressure 30.35 in    
Wind  
Wind Speed 11 mph (WNW)    
Max Wind Speed 17 mph    
Max Gust Speed 21 mph    
Visibility 10 miles    
Events      
Averages and records for this station are not official NWS values.
T = Trace of Precipitation, MM = Missing Value Source: NWS Daily Summary

Daily Weather History Graph

Daily Weather History Graph

Search for Another Location

Airport or City:

Trip Planner

Search our weather history database for the weather conditions in past years. The results will help you decide how hot, cold, wet, or windy it might be!

Date:

Astronomy

Nov. 26, 2012 Rise Set
Actual Time 7:32 AM CST 4:42 PM CST
Civil Twilight 6:59 AM CST 5:15 PM CST
Nautical Twilight 6:23 AM CST 5:51 PM CST
Astronomical Twilight 5:48 AM CST 6:26 PM CST
Moon 3:37 PM CST (11/26) 5:40 AM CST (11/26)
Length of Visible Light 10h 15m
Length of Day
9h 10m
Waxing Gibbous, 97% of the Moon is Illuminated
Nov 26
Waxing Gibbous
Nov 28
Full
Dec 6
Last Quarter
Dec 13
New
Dec 19
First Quarter

Hourly Weather History & Observations

Time (CST) Temp. Windchill Dew Point Humidity Pressure Visibility Wind Dir Wind Speed Gust Speed Precip Events Conditions
12:11 AM 24.8 °F 12.4 °F 14.0 °F 64% 30.20 in 10.0 mi NNW 15.0 mph 18.4 mph N/A   Overcast
12:31 AM 23.0 °F 9.2 °F 12.2 °F 63% 30.21 in 10.0 mi NNW 17.3 mph - N/A   Overcast
12:51 AM 21.2 °F 8.3 °F 10.4 °F 63% 30.21 in 10.0 mi North 13.8 mph 19.6 mph N/A   Overcast
1:11 AM 21.2 °F 8.9 °F 12.2 °F 68% 30.21 in 10.0 mi NNW 12.7 mph 20.7 mph N/A   Overcast
1:30 AM 21.2 °F 8.3 °F 12.2 °F 68% 30.23 in 10.0 mi NNW 13.8 mph - N/A   Overcast
1:51 AM 21.2 °F 8.3 °F 12.2 °F 68% 30.24 in 10.0 mi NNW 13.8 mph 19.6 mph N/A   Overcast
2:11 AM 21.2 °F 8.9 °F 12.2 °F 68% 30.25 in 10.0 mi NNW 12.7 mph - N/A   Overcast
2:31 AM 19.4 °F 6.0 °F 8.6 °F 63% 30.26 in 10.0 mi NNW 13.8 mph 20.7 mph N/A   Overcast
2:51 AM 19.4 °F 5.5 °F 8.6 °F 63% 30.27 in 10.0 mi NNW 15.0 mph - N/A   Overcast
3:11 AM 17.6 °F 2.2 °F 8.6 °F 68% 30.26 in 10.0 mi NNW 17.3 mph - N/A   Mostly Cloudy
3:31 AM 15.8 °F 2.1 °F 6.8 °F 68% 30.28 in 10.0 mi NNW 12.7 mph - N/A   Scattered Clouds
3:51 AM 15.8 °F 1.4 °F 8.6 °F 73% 30.28 in 10.0 mi NW 13.8 mph - N/A   Clear
4:11 AM 14.0 °F -0.2 °F 6.8 °F 73% 30.29 in 10.0 mi NW 12.7 mph - N/A   Clear
4:31 AM 12.2 °F -1.8 °F 5.0 °F 73% 30.29 in 10.0 mi NNW 11.5 mph - N/A   Clear
4:51 AM 12.2 °F -1.0 °F 5.0 °F 73% 30.30 in 10.0 mi NW 10.4 mph - N/A   Clear
5:11 AM 12.2 °F -1.0 °F 5.0 °F 73% 30.31 in 10.0 mi NNW 10.4 mph - N/A   Clear
5:30 AM 12.2 °F -2.5 °F 5.0 °F 73% 30.31 in 10.0 mi NNW 12.7 mph - N/A   Clear
5:50 AM 10.4 °F -3.3 °F 5.0 °F 79% 30.33 in 10.0 mi NNW 10.4 mph - N/A   Clear
6:11 AM 10.4 °F -3.3 °F 5.0 °F 79% 30.33 in 10.0 mi NW 10.4 mph 16.1 mph N/A   Clear
6:30 AM 10.4 °F -3.3 °F 5.0 °F 79% 30.34 in 10.0 mi NW 10.4 mph - N/A   Clear
6:51 AM 10.4 °F -3.3 °F 5.0 °F 79% 30.35 in 10.0 mi NW 10.4 mph - N/A   Clear
7:11 AM 10.4 °F -4.1 °F 5.0 °F 79% 30.36 in 10.0 mi NNW 11.5 mph - N/A   Clear
7:31 AM 10.4 °F -2.4 °F 5.0 °F 79% 30.36 in 10.0 mi NW 9.2 mph - N/A   Clear
7:51 AM 10.4 °F -3.3 °F 5.0 °F 79% 30.37 in 10.0 mi NW 10.4 mph - N/A   Clear
8:11 AM 10.4 °F -3.3 °F 5.0 °F 79% 30.38 in 10.0 mi NW 10.4 mph - N/A   Clear
8:31 AM 10.4 °F -3.3 °F 5.0 °F 79% 30.40 in 10.0 mi NW 10.4 mph - N/A   Clear
8:51 AM 12.2 °F 0.7 °F 5.0 °F 73% 30.40 in 10.0 mi NNW 8.1 mph - N/A   Clear
9:11 AM 12.2 °F -0.2 °F 5.0 °F 73% 30.41 in 10.0 mi NW 9.2 mph - N/A   Clear
9:31 AM 14.0 °F 2.0 °F 6.8 °F 73% 30.42 in 10.0 mi NW 9.2 mph - N/A   Clear
9:51 AM 15.8 °F 6.1 °F 6.8 °F 68% 30.43 in 10.0 mi NW 6.9 mph - N/A   Clear
10:10 AM 15.8 °F 3.4 °F 5.0 °F 62% 30.43 in 10.0 mi NW 10.4 mph - N/A   Clear
10:31 AM 17.6 °F 6.4 °F 5.0 °F 58% 30.43 in 10.0 mi NW 9.2 mph - N/A   Clear
10:51 AM 17.6 °F 5.0 °F 8.6 °F 68% 30.43 in 10.0 mi NW 11.5 mph 16.1 mph N/A   Clear
11:11 AM 17.6 °F 5.7 °F 6.8 °F 63% 30.43 in 10.0 mi NW 10.4 mph - N/A   Clear
11:31 AM 19.4 °F 7.9 °F 6.8 °F 58% 30.43 in 10.0 mi NW 10.4 mph 17.3 mph N/A   Clear
11:50 AM 19.4 °F 9.5 °F 8.6 °F 63% 30.43 in 10.0 mi NW 8.1 mph 16.1 mph N/A   Clear
12:11 PM 21.2 °F 10.1 °F 8.6 °F 58% 30.42 in 10.0 mi WNW 10.4 mph 16.1 mph N/A   Clear
12:31 PM 21.2 °F 9.5 °F 8.6 °F 58% 30.42 in 10.0 mi NW 11.5 mph - N/A   Clear
12:51 PM 21.2 °F 10.1 °F 8.6 °F 58% 30.41 in 10.0 mi WNW 10.4 mph - N/A   Clear
1:11 PM 23.0 °F 12.4 °F 8.6 °F 54% 30.40 in 10.0 mi WNW 10.4 mph - N/A   Clear
1:31 PM 21.2 °F 13.6 °F 8.6 °F 58% 30.39 in 10.0 mi NW 5.8 mph - N/A   Clear
1:51 PM 23.0 °F 12.4 °F 8.6 °F 54% 30.38 in 10.0 mi NW 10.4 mph - N/A   Clear
2:11 PM 23.0 °F 11.1 °F 8.6 °F 54% 30.39 in 10.0 mi NW 12.7 mph 17.3 mph N/A   Clear
2:31 PM 23.0 °F 13.1 °F 8.6 °F 54% 30.38 in 10.0 mi WNW 9.2 mph - N/A   Clear
2:50 PM 23.0 °F 12.4 °F 8.6 °F 54% 30.38 in 10.0 mi WNW 10.4 mph - N/A   Clear
3:11 PM 23.0 °F 13.9 °F 8.6 °F 54% 30.38 in 10.0 mi WNW 8.1 mph - N/A   Clear
3:31 PM 23.0 °F 13.9 °F 8.6 °F 54% 30.38 in 10.0 mi WNW 8.1 mph - N/A   Clear
3:51 PM 23.0 °F 13.1 °F 8.6 °F 54% 30.38 in 10.0 mi WNW 9.2 mph - N/A   Clear
4:11 PM 23.0 °F 14.7 °F 8.6 °F 54% 30.38 in 10.0 mi WNW 6.9 mph - N/A   Clear
4:30 PM 21.2 °F 14.9 °F 8.6 °F 58% 30.38 in 10.0 mi West 4.6 mph - N/A   Clear
4:51 PM 21.2 °F - 8.6 °F 58% 30.38 in 10.0 mi Calm Calm - N/A   Clear
5:11 PM 19.4 °F - 6.8 °F 58% 30.38 in 10.0 mi Calm Calm - N/A   Clear
5:31 PM 19.4 °F - 6.8 °F 58% 30.38 in 10.0 mi Calm Calm - N/A   Clear
5:51 PM 17.6 °F - 6.8 °F 63% 30.37 in 10.0 mi Calm Calm - N/A   Clear
6:10 PM 15.8 °F - 6.8 °F 68% 30.36 in 10.0 mi Calm Calm - N/A   Clear
6:31 PM 15.8 °F - 6.8 °F 68% 30.36 in 10.0 mi Calm Calm - N/A   Clear
6:51 PM 15.8 °F - 6.8 °F 68% 30.36 in 10.0 mi Calm Calm - N/A   Clear
7:10 PM 17.6 °F - 6.8 °F 63% 30.36 in 10.0 mi Calm Calm - N/A   Clear
7:31 PM 15.8 °F - 6.8 °F 68% 30.35 in 10.0 mi Calm Calm - N/A   Clear
7:51 PM 17.6 °F 8.2 °F 6.8 °F 63% 30.34 in 10.0 mi South 6.9 mph - N/A   Clear
8:10 PM 17.6 °F 9.3 °F 6.8 °F 63% 30.34 in 10.0 mi SSW 5.8 mph - N/A   Clear
8:31 PM 15.8 °F 5.1 °F 6.8 °F 68% 30.34 in 10.0 mi SSW 8.1 mph - N/A   Clear
8:51 PM 15.8 °F 10.2 °F 6.8 °F 68% 30.34 in 10.0 mi SSW 3.5 mph - N/A   Clear
9:10 PM 15.8 °F 6.1 °F 8.6 °F 73% 30.33 in 10.0 mi SSW 6.9 mph - N/A   Clear
9:31 PM 15.8 °F 6.1 °F 8.6 °F 73% 30.33 in 10.0 mi SSW 6.9 mph - N/A   Clear
9:50 PM 15.8 °F 5.1 °F 8.6 °F 73% 30.33 in 10.0 mi SSW 8.1 mph - N/A   Clear
10:11 PM 15.8 °F 4.2 °F 8.6 °F 73% 30.32 in 10.0 mi SSW 9.2 mph - N/A   Clear
10:31 PM 15.8 °F 6.1 °F 8.6 °F 73% 30.32 in 10.0 mi SSW 6.9 mph - N/A   Clear
10:50 PM 15.8 °F 6.1 °F 8.6 °F 73% 30.31 in 10.0 mi SSW 6.9 mph - N/A   Clear
11:11 PM 15.8 °F 5.1 °F 8.6 °F 73% 30.31 in 10.0 mi SSW 8.1 mph - N/A   Clear
11:31 PM 17.6 °F 7.3 °F 8.6 °F 68% 30.30 in 10.0 mi SSW 8.1 mph - N/A   Clear
11:50 PM 15.8 °F 7.2 °F 8.6 °F 73% 30.31 in 10.0 mi SSW 5.8 mph - N/A   Clear